Last 24 Hours

OV-Belmont 8000'

Hourly Data | America/Los_Angeles
as of 2/24/24 1:03 AM PST
Date & Time Temp (°F) RH (%) Dew Pt (°F) Wet Bulb (°F) Wind Dir (°) Wind Spd (mph) Wind Gust (mph) WindChill (°F) Latest Rain (In) New Snow (in) SnowDepth (in) Daily Min Temp (°F) Daily Max Temp (°F) Daily Rain (In)
2/24/24 - 0100 28.5 77 22.1 26.0 NNW | 335 1.4 3.4 28.5 0.00 0.0 154.0 27.8 29.5 0.00
2/24/24 - 0000 28.0 77 21.6 25.5 W | 265 1.1 4.1 28.9 0.00 0.0 154.0 23.1 40.7 0.00
2/23/24 - 2300 30.3 72 22.2 27.0 SSW | 192 2.8 5.2 27.9 0.00 0.0 154.0 23.1 40.7 0.00
2/23/24 - 2200 29.6 76 23.1 27.0 SSW | 195 1.8 5.1 28.7 0.00 0.0 154.0 23.1 40.7 0.00
2/23/24 - 2100 28.8 84 24.5 27.0 SSE | 163 1.3 4.7 27.7 0.00 0.0 154.0 23.1 40.7 0.00
2/23/24 - 2000 28.8 84 24.5 27.0 SSE | 157 1.0 5.9 28.5 0.00 0.0 154.0 23.1 40.7 0.00
2/23/24 - 1900 29.0 83 24.4 27.1 SSE | 150 0.7 5.6 29.3 0.00 0.0 154.0 23.1 40.7 0.00
2/23/24 - 1800 30.4 80 24.9 28.1 ESE | 103 2.7 9.0 29.5 0.00 0.0 154.0 23.1 40.7 0.00
2/23/24 - 1700 32.6 72 24.7 29.3 ESE | 122 3.8 9.1 31.3 0.00 0.0 154.0 23.1 40.7 0.00
2/23/24 - 1600 36.3 57 22.6 30.6 SE | 133 2.8 7.2 35.0 0.00 0.0 154.0 23.1 40.7 0.00
2/23/24 - 1500 36.8 54 21.9 30.7 ESE | 123 3.2 9.2 35.2 0.00 0.0 154.0 23.1 40.7 0.00
2/23/24 - 1400 37.2 57 23.4 31.4 ESE | 117 3.6 10.7 36.5 0.00 0.0 154.0 23.1 40.7 0.00
2/23/24 - 1300 38.4 57 24.3 32.3 E | 92 3.8 12.6 33.9 0.00 0.0 154.0 23.1 39.1 0.00
2/23/24 - 1200 33.8 62 22.0 29.0 E | 96 4.6 11.8 30.8 0.00 0.0 154.0 23.1 35.4 0.00
2/23/24 - 1100 34.0 62 22.4 29.3 E | 101 5.1 11.9 29.1 0.00 0.0 154.0 23.1 35.0 0.00
2/23/24 - 1000 33.3 65 22.9 29.0 ESE | 102 3.7 9.6 30.9 0.00 0.0 154.0 23.1 35.0 0.00
2/23/24 - 0900 31.2 72 23.1 28.0 ESE | 113 4.0 11.2 26.1 0.00 0.0 154.0 23.1 31.3 0.00
2/23/24 - 0800 28.0 75 21.2 25.4 ESE | 118 3.5 9.6 23.2 0.00 0.0 154.0 23.1 28.1 0.00
2/23/24 - 0700 25.1 86 21.4 23.7 SE | 129 1.9 6.7 23.6 0.00 0.0 154.0 23.1 27.7 0.00
2/23/24 - 0600 26.9 69 18.1 23.7 S | 191 1.3 6.5 26.5 0.00 0.0 154.0 24.8 27.7 0.00
2/23/24 - 0500 26.2 75 19.5 23.7 SW | 224 0.5 2.7 25.4 0.00 0.0 154.0 24.8 26.6 0.00
2/23/24 - 0400 26.0 72 18.0 23.1 SSW | 207 0.2 1.9 26.1 0.00 0.0 154.0 24.8 26.6 0.00
2/23/24 - 0300 25.9 70 17.6 22.9 NW | 324 0.9 3.5 25.7 0.00 0.0 154.0 24.8 26.6 0.00
2/23/24 - 0200 25.3 66 15.6 21.9 WNW | 299 0.2 2.9 25.2 0.00 0.0 154.0 24.8 26.6 0.00
2/23/24 - 0100 25.5 76 19.0 23.1 S | 181 0.9 4.1 25.8 0.00 0.0 154.0 25.3 26.6 0.00
Max 38.4 86 24.9 32.3 - 5.1 12.6 36.5 0.00 0.0 154.0 27.8 40.7 0.00
Avg 30.2 71 21.8 26.9 - 2.3 7.0 28.8 0.00 - - - - -
Min 25.1 54 15.6 21.9 - 0.2 1.9 23.2 0.00 0.0 154.0 23.1 26.6 0.00
Total - - - - - - - - 0.00 - - - - -